Location: Akgöl Batakl???
(38.9482°N, 31.8837°E)
Time: 10:59:52
(UTC+00:00)

Cosmos 2173 Rocket - Pass Details

Date: 08 May 2026
Orbit: 945 x 998 km, 83.0° (Epoch: 6 June)

Event Time Altitude Azimuth Distance (km) Brightness Sun altitude
Exits shadow 17:48:55 - 170° (S) 3,597 6.6 -10.7°
Reaches altitude 10° 17:51:27 10° 165° (SSE) 2,662 5.9 -11.1°
Maximum altitude 17:57:17 51° 91° (E) 1,188 4.2 -12.0°
Drops below altitude 10° 18:03:13 10° 17° (NNE) 2,707 6.6 -13.0°
Sets 18:05:48 0° 13° (NNE) 3,665 7.3 -13.4°
